sat.trackr.live / text

‹ back to catalog

STARLINK-36035

NORAD 67082 · 2025-298H

PAYLOAD ACTIVE UNKNOWN

§ Identity

Operator
Country
US
Launch date
2025-12-14
Launch site
AFWTR
Launch vehicle
Mass (kg)
RCS (m²)

Purposes: comms

External: N2YO · Heavens-Above · Gunter

§ Orbital elements

Epoch: 2026-09-19T15:45:44.366400Z

Period
96.11 min
Inclination
69.9992°
Eccentricity
0.0004033
Mean motion
14.98338299 rev/d
Perigee alt
569.2 km
Apogee alt
574.8 km
Semi-major
6,950.2 km
B*
3.4808e-4
RAAN
245.3220°
Arg perigee
267.3725°
Mean anomaly
92.6972°
Rev number
4,227

§ Raw data

STARLINK-360351 67082U 25298H   26262.65676350  .00004064  00000+0  34808-3 0  99942 67082  69.9992 245.3220 0004033 267.3725  92.6972 14.98338299 42275

JSON: /api/v1/satellites/67082 · /tle

For live sub-satellite position, see the globe view (requires WebGL).

§ Visibility from observer

Set your observer location to see the next 7 days of passes ≥ 10°. The values pass through the URL so the page stays shareable.

No JS? Fill the form by hand. The geolocation button needs JavaScript.